Flag for U.S.A. Weather past 2 weeks in St. Augustine, Florida, U.S.A.

Now
87 °F

Sunny.


Feels Like: 98 °F
Forecast: 75 / 90 °F
Wind: 6 mph from Southeast

Location: St. Augustine Airport

Current Time: Jul 29, 2014 at 8:59:44 PM

Latest Report: Jul 29, 2014 at 7:58 PM


Visibility: 10 mi

Pressure: 29.90 "Hg

Humidity: 69%

Dew point: 76 °F

Location of St. AugustineLocation

Historic Weather in St. Augustine — Graph

°F

St. Augustine temperature yesterday

Maximum temperature yesterday: 95 °F (at 2:58 PM)
Minimum temperature yesterday: 79 °F (at 4:58 AM)
Average temperature yesterday: 86 °F

Past Weeks' High & Low Weather Summary

 TemperatureHumidityPressure
High97 °F (Jul 27, 4:58 PM)97% (Jul 17, 12:58 AM)30.11 "Hg (Jul 17, 12:58 AM)
Low71 °F (Jul 15, 12:58 AM)41% (Jul 24, 2:58 PM)29.87 "Hg (Jul 16, 4:58 PM)
Average82 °F76%30.02 "Hg
* Reported Jul 14 7:58 PM — Jul 29 7:58 PM, St. Augustine, Weather by CustomWeather, © 2014

Note: Actual official high and low records may vary slightly from our data, if they occured in-between our weather recording intervals... More about our weather records

Advertising

St. Augustine weather history for previous 24 hours

 ConditionsComfort  
Time TempWeatherWind HumidityBarometerVisibility
7:58 PM
Jul 29
87 °FSunny.6 mph69%29.90 "Hg10 mi
6:58 PM88 °FScattered clouds.10 mph67%29.89 "Hg10 mi
5:58 PM88 °FScattered clouds.10 mph67%29.89 "Hg10 mi
4:58 PM93 °FScattered clouds.13 mph60%29.88 "Hg10 mi
3:58 PM95 °FScattered clouds.9 mph52%29.89 "Hg10 mi
2:58 PM96 °FPassing clouds.5 mph41%29.90 "Hg10 mi
1:58 PM93 °FSunny.7 mph47%29.92 "Hg10 mi
12:58 PM91 °FPartly sunny.7 mph52%29.93 "Hg6 mi
11:58 AM90 °FScattered clouds.8 mph59%29.95 "Hg6 mi
10:58 AM89 °FSunny.7 mph61%29.95 "Hg6 mi
9:58 AM86 °FScattered clouds.3 mph65%29.94 "Hg5 mi
8:58 AM83 °FScattered clouds.8 mph77%29.93 "Hg5 mi
7:58 AM80 °FFog.8 mph87%29.91 "Hg5 mi
6:58 AM79 °FFog.6 mph90%29.90 "Hg5 mi
5:58 AM80 °FClear.6 mph90%29.90 "Hg10 mi
4:58 AM80 °FPartly cloudy.9 mph90%29.90 "Hg10 mi
3:58 AM81 °FMostly cloudy.9 mph88%29.89 "Hg10 mi
2:58 AM81 °FClear.10 mph85%29.90 "Hg10 mi
1:58 AM81 °FClear.12 mph85%29.91 "Hg10 mi
12:58 AM81 °FClear.8 mph82%29.92 "Hg10 mi
11:58 PM
Jul 28
82 °FClear.8 mph79%29.93 "Hg10 mi
10:58 PM83 °FClear.10 mph74%29.94 "Hg10 mi
9:58 PM84 °FClear.8 mph72%29.94 "Hg10 mi
8:58 PM84 °FSunny.8 mph77%29.93 "Hg10 mi
Weather by CustomWeather, © 2014

See weather overviewHow to use our weather pages